| DS18B20 | SHTC3 | ||||||
|---|---|---|---|---|---|---|---|
| ID | Date d/m/Y & Time | data1 สูง | data2 ต่ำ | data3 นอก | temp pcb | hum pcb | Time |
| 7613 | 31/03/2026 21:22:13 | 30.0  | 30.1  | 28.9  | 30.1  | 72.7  | 21:22 |
| 7612 | 31/03/2026 21:17:32 | 30.1  | 30.1  | 28.9  | 29.9  | 72.7  | 21:17 |
| 7611 | 31/03/2026 21:12:51 | 30.1  | 30.1  | 28.9  | 30.1  | 72.8  | 21:12 |
| 7610 | 31/03/2026 21:08:08 | 30.1  | 30.1  | 28.9  | 29.9  | 72.7  | 21:08 |
| 7609 | 31/03/2026 21:03:27 | 30.1  | 30.1  | 29.0  | 30.1  | 72.7  | 21:03 |
| 7608 | 31/03/2026 20:58:45 | 30.1  | 30.1  | 29.0  | 29.9  | 72.7  | 20:58 |
| 7607 | 31/03/2026 20:54:03 | 30.1  | 30.2  | 29.0  | 29.9  | 72.7  | 20:54 |
| 7606 | 31/03/2026 20:49:21 | 30.1  | 30.2  | 29.0  | 30.1  | 72.7  | 20:49 |
| 7605 | 31/03/2026 20:44:39 | 30.1  | 30.2  | 29.1  | 30.1  | 72.7  | 20:44 |
| 7604 | 31/03/2026 20:39:56 | 30.2  | 30.2  | 29.1  | 30.2  | 72.8  | 20:39 |
| 7603 | 31/03/2026 20:35:14 | 30.2  | 30.2  | 29.0  | 30.2  | 72.8  | 20:35 |
| 7602 | 31/03/2026 20:30:32 | 30.2  | 30.2  | 29.1  | 30.1  | 72.8  | 20:30 |
| 7601 | 31/03/2026 20:25:51 | 30.2  | 30.2  | 29.2  | 30.1  | 72.7  | 20:25 |
| 7600 | 31/03/2026 20:21:08 | 30.3  | 30.2  | 29.2  | 30.1  | 72.7  | 20:21 |
| 7599 | 31/03/2026 20:16:26 | 30.3  | 30.2  | 29.2  | 30.1  | 72.6  | 20:16 |
| 7598 | 31/03/2026 20:11:44 | 30.4  | 30.3  | 29.2  | 30.0  | 72.2  | 20:11 |
| 7597 | 31/03/2026 20:07:03 | 30.4  | 30.3  | 29.3  | 30.1  | 72.4  | 20:07 |
| 7596 | 31/03/2026 20:02:22 | 30.4  | 30.3  | 29.3  | 30.3  | 72.4  | 20:02 |
| 7595 | 31/03/2026 19:57:40 | 30.4  | 30.4  | 29.3  | 30.3  | 72.3  | 19:57 |
| 7594 | 31/03/2026 19:52:58 | 30.4  | 30.4  | 29.2  | 30.3  | 72.3  | 19:52 |
| 7593 | 31/03/2026 19:48:17 | 30.4  | 30.4  | 29.4  | 30.5  | 72.3  | 19:48 |
| 7592 | 31/03/2026 19:43:34 | 30.4  | 30.4  | 29.3  | 30.4  | 72.3  | 19:43 |
| 7591 | 31/03/2026 19:38:52 | 30.5  | 30.4  | 29.4  | 30.4  | 72.3  | 19:38 |
| 7590 | 31/03/2026 19:34:10 | 30.5  | 30.4  | 29.4  | 30.4  | 72.2  | 19:34 |